Regional Weather Roundup
Issued by NWS State College, PA

Home | Current Version | Previous Version | Graphics & Text | Print | Product List | Glossary On
Versions: 1 2 3 4 5 6 7 8 9 10 11 12 13 14 15 16 17 18 19 20 21 22 23 24 25 26 27 28 29 30 31 32 33 34 35 36 37 38 39 40 41 42 43 44 45 46 47 48 49 50
000
ASUS41 KCTP 051310
RWRCTP

REGIONAL WEATHER ROUNDUP
NATIONAL WEATHER SERVICE STATE COLLEGE PA
800 AM EST THU MAR 05 2015

Note: "fair" indicates few or no clouds below 12,000 feet with no
significant weather and/or obstructions to visibility.

* = STATION THAT DOES NOT REPORT PRECIPITATION /E.G. RAIN...SNOW...ETC/
    THUNDER OR FOG.

PAZ002>004-007>009-013>016-020>023-029>032-051400-
WESTERN PENNSYLVANIA

CITY           SKY/WX    TMP DP  RH WIND       PRES   REMARKS
ERIE           CLOUDY    10  -2  58 N9        30.31R WCI  -3
MEADVILLE      CLOUDY    10  -1  61 N8        30.22R WCI  -2
FRANKLIN*      CLOUDY    10  -4  52 N6        30.21R WCI   1
NEW CASTLE     FAIR      13   2  61 NW13      30.28R WCI  -1
BEAVER COUNTY  CLOUDY    14   5  67 N10G16    30.20F WCI   1
BUTLER*        CLOUDY    16   7  67 N5        30.21R WCI   9
PITTSBURGH INT FLURRIES  14  10  84 N10       30.21R WCI   1
PITTSBURGH     LGT SNOW  16  10  77 N12       30.18R VSB 1   WCI   3
INDIANA*       FOG       16  12  86 N10G17    30.19R VSB 3/4 WCI   3
LATROBE        LGT SNOW  18  16  93 NW7       30.19R WCI   8
WASHINGTON CO* CLOUDY    16  10  79 N3        30.21R
$$

PAZ004>006-010>012-017>019-024>028-033>037-041-042-045-046-049>053-051400-
CENTRAL PENNSYLVANIA

CITY           SKY/WX    TMP DP  RH WIND       PRES   REMARKS
BRADFORD       CLOUDY     8  -5  55 N8        30.10R WCI  -4
DUBOIS         CLOUDY    13   5  70 N12       30.11R WCI  -1
CLEARFIELD     CLOUDY    16   8  71 NW14      30.13R WCI   2
JOHNSTOWN      LGT SNOW  15  12  88 NW8       30.04R VSB 1   WCI   4
ALTOONA        LGT SNOW  22  16  78 N9        30.09R WCI  12
STATE COLLEGE  LGT SNOW  23  14  68 NW10      30.11R FOG     WCI  12
WILLIAMSPORT   CLOUDY    22   7  52 N8G21     30.17R WCI  12
SELINSGROVE    LGT SNOW  25  20  81 N16       30.14R VSB 3/4 WCI  12
FT INDIANTOWN  LGT SNOW  28  27  93 E5        30.10R VSB 1
CAPITAL CITY   SNOW      30  28  92 NW8       30.12R VSB 1/2
HARRISBURG     SNOW      30  28  92 NW12      30.11R VSB 1/2
YORK           SNOW      30  28  92 NW10      30.10R VSB 1/2
$$

PAZ038>040-043-044-047-048-054-055-060>062-067>071-051400-
EASTERN PENNSYLVANIA

CITY           SKY/WX    TMP DP  RH WIND       PRES   REMARKS
SCRANTON       LGT SNOW  20   9  62 N18       30.11R WCI   5
MOUNT POCONO   LGT SNOW  19  13  77 NW14G23   29.98R VSB 3/4 WCI   6
ALLENTOWN      LGT SNOW  29  25  85 NW8       30.08R VSB 1
QUAKERTOWN*    CLOUDY    28  27  93 N7        30.07R VSB 1/2
READING        SNOW      31  28  89 NW15      30.09R VSB 1/2
LANCASTER      SNOW      31  30  96 NW8       30.08R VSB 1/4
COATESVILLE    SNOW      32  32 100 N7        30.06R VSB 1/2
POTTSTOWN      LGT SNOW  30  29  96 N9        30.09R VSB 3/4
BLUE BELL      CLOUDY    32  32 100 CALM      30.06R VSB 1/2
DOYLESTOWN     LGT SNOW  29  28  96 N12G21    30.06R VSB 3/4
WILLOW GROVE   NOT AVBL
NORTH PHILA    LGT SNOW  33  32  96 N9        30.09R VSB 3/4
PHILADELPHIA   LGT SNOW  33  31  92 N14       30.09R VSB 3/4
$$



USA.gov is the U.S. government's official web portal to all federal, state and local government web resources and services.